Temperature
11 11 11 11 11 11 11 12 12 12 12 12 12 12 12 12 12 12 12 12 11 11 11 11 10 10 10 10 9 9 9 9 9 9 8 8 8 8 9 9 9 9 9
11 11 11 11 11 11 11 11 11 12 12 12 12 12 12 12 12 12 12 12 11 11 11 11 10 10 10 9 9 9 9 9 9 8 8 8 8 8 9 9 9 9 9
10 10 11 11 11 11 11 11 11 11 11 12 12 12 11 11 11 11 11 11 11 11 11 11 10 10 10 10 9 9 10 9 9 9 9 9 10 9 9 9 9 9 9
9 10 10 10 10 11 11 11 11 11 11 11 11 11 11 11 11 12 12 11 11 11 11 11 10 10 10 10 10 10 9 9 9 9 9 9 9 9 9 9 9 9 9
9 9 10 10 10 10 10 11 11 11 11 11 11 11 11 11 11 11 11 11 11 11 11 11 10 10 10 10 10 10 9 9 9 9 9 9 9 9 9 9 9 9 9
8 9 9 10 10 10 10 10 11 11 11 11 11 11 11 11 11 11 11 11 11 11 11 11 11 10 10 10 10 10 10 10 9 10 10 10 9 9 9 9 9 9 9
8 8 8 9 9 9 10 10 10 11 11 11 11 11 12 12 11 11 11 11 11 11 11 11 11 11 11 10 10 10 10 10 10 10 10 10 9 9 9 9 9 9 9
7 7 8 8 8 9 9 10 10 11 11 11 11 11 11 11 11 11 11 11 11 12 12 11 11 11 11 11 10 10 10 10 10 10 10 9 9 9 9 9 9 8 8
6 6 7 7 8 8 9 9 10 11 11 11 11 11 11 11 12 11 11 11 11 12 12 12 11 11 11 11 11 11 10 10 10 10 10 9 9 9 9 9 9 8 8
5 6 6 6 7 8 8 9 10 10 11 11 11 11 11 11 11 11 11 12 12 12 12 12 11 11 11 11 11 11 10 10 10 10 10 9 9 9 9 9 9 8 8
5 5 5 6 6 7 8 9 9 10 10 11 11 11 11 11 11 11 12 12 12 12 12 12 11 11 11 11 11 11 10 10 10 10 10 10 9 9 9 9 9 8 8
4 5 5 5 6 7 7 8 9 9 10 11 11 11 11 11 11 11 11 11 12 12 12 12 11 11 11 11 11 11 10 10 10 10 10 10 9 9 9 9 9 8 8
4 4 5 5 5 6 7 7 8 9 10 10 10 11 11 11 11 11 11 11 11 11 11 11 11 12 11 11 11 11 11 10 10 10 10 10 10 9 9 9 9 8 8
4 4 4 4 5 5 6 7 7 8 9 9 10 10 11 11 11 11 11 11 11 11 11 12 11 11 11 11 11 11 10 10 10 10 10 10 10 9 9 9 9 8 8
3 3 3 4 4 5 6 6 7 8 9 9 10 10 11 11 11 11 11 11 11 11 11 11 11 11 11 11 11 11 10 10 10 10 10 10 9 9 9 9 8 8 8
3 3 3 3 4 4 5 6 6 7 8 9 9 10 10 11 11 11 11 11 11 11 11 11 11 11 11 11 11 11 10 10 10 10 10 9 9 9 9 8 8 8 7
3 3 3 3 3 4 5 5 6 7 7 8 9 9 10 10 11 11 11 11 10 10 11 11 10 10 11 11 11 10 10 10 10 10 10 9 9 8 8 8 8 7 7
3 3 3 3 3 4 4 5 6 6 7 8 8 9 9 10 10 10 10 10 10 10 10 11 10 10 10 11 10 10 10 10 10 9 9 9 9 8 8 8 7 7 6
2 2 3 3 3 4 4 5 5 6 6 7 8 8 9 9 10 10 10 10 10 10 10 10 10 10 10 10 10 10 9 9 9 9 9 8 8 8 8 7 7 6 6
2 2 2 3 3 4 4 5 5 5 6 7 7 8 9 9 9 10 10 10 10 10 10 10 10 10 10 10 10 9 9 9 8 8 8 8 8 8 7 7 6 6 5
2 2 2 3 3 3 4 4 5 5 6 6 7 8 8 8 9 9 9 9 9 9 9 9 9 9 9 9 9 9 9 9 8 8 8 7 7 7 7 6 6 5 5
1 2 2 2 3 3 3 4 4 5 5 6 7 7 8 8 9 9 9 9 9 9 9 9 9 9 9 9 9 9 9 8 8 8 8 7 7 6 6 6 5 5 4
1 1 2 2 2 3 3 3 4 5 5 6 6 7 7 8 8 8 9 9 9 9 8 8 9 9 9 9 9 8 8 8 8 8 7 7 6 6 5 5 4 4 3
1 1 1 2 2 3 3 3 4 4 5 5 6 6 7 7 8 8 8 8 8 8 8 8 8 8 8 8 8 8 8 7 7 7 7 6 6 5 5 4 4 3 3
0 1 1 1 2 2 3 3 3 4 4 5 6 6 7 7 7 8 8 8 8 9 9 9 8 8 8 8 8 8 8 7 7 7 6 6 5 5 4 4 3 3 2
0 0 1 1 1 2 3 3 3 4 4 5 5 6 6 6 7 7 7 7 8 8 8 8 8 8 9 8 8 8 7 7 7 6 6 5 5 4 4 3 3 2 2
Wind_Speed
16 15 15 15 15 16 17 17 17 16 15 13 12 13 14 14 14 14 18 19 18 19 16 12 14 14 12 13 13 11 11 9 8 7 5 4 5 5 5 5 5 6 6
14 14 14 15 15 16 17 17 18 17 18 15 13 13 13 12 13 13 16 19 19 19 16 16 14 14 13 14 14 12 10 8 9 7 6 4 5 5 6 6 6 6 6
12 12 13 14 14 15 17 16 18 18 18 18 13 12 11 10 11 14 15 17 19 19 18 18 16 15 14 14 15 15 13 10 10 8 6 4 4 4 5 7 6 6 6
11 10 10 11 13 14 14 16 17 17 18 18 16 18 15 14 13 14 14 16 18 19 19 19 17 16 14 15 15 15 12 12 10 8 6 3 2 3 4 5 6 7 7
10 9 9 10 11 11 11 13 15 16 17 18 19 20 18 15 12 14 16 17 17 18 19 19 17 17 15 16 16 15 14 12 11 9 7 5 3 4 3 3 4 5 6
8 8 7 7 8 7 8 11 14 15 18 19 20 22 21 18 16 17 17 16 14 15 19 19 18 17 15 16 16 15 16 13 13 10 9 7 5 5 5 4 4 4 3
8 7 6 6 6 6 7 9 14 15 17 19 20 21 21 21 20 18 18 17 15 14 19 18 18 17 16 16 16 15 16 15 15 13 10 9 8 5 5 4 3 3 2
9 8 7 6 6 6 7 9 12 14 16 17 18 19 20 16 15 18 17 18 16 16 19 20 19 19 18 17 16 14 15 14 15 14 13 9 8 7 6 5 4 3 4
11 9 8 7 6 6 7 8 11 12 15 17 17 18 19 18 17 18 18 16 16 16 20 20 20 19 19 18 17 14 16 14 14 14 13 11 8 8 7 6 6 5 4
13 11 10 8 7 6 6 8 9 12 14 16 16 15 19 19 18 17 18 18 18 17 19 20 20 19 19 19 17 15 15 15 14 11 13 12 9 8 7 7 6 6 5
14 13 11 10 8 6 6 6 8 10 11 13 14 16 18 18 18 18 18 18 18 19 19 20 20 19 19 19 18 17 16 17 15 13 13 13 11 8 7 7 6 6 6
14 12 11 10 9 7 6 6 7 8 10 11 13 15 16 17 18 18 18 18 18 19 19 19 19 19 19 19 19 18 17 17 16 15 14 13 10 11 8 7 8 7 7
15 13 12 11 10 8 7 7 7 7 9 10 12 14 15 17 18 18 17 17 17 18 19 19 20 19 19 19 18 18 17 17 16 15 14 13 12 12 9 9 8 6 5
14 14 13 12 11 9 8 7 7 7 7 9 11 13 15 17 18 18 17 17 17 17 18 19 19 19 18 18 18 17 16 15 14 13 13 13 13 12 11 9 8 7 6
14 14 14 13 13 11 9 9 8 7 6 9 10 12 14 14 15 16 17 17 16 16 16 17 17 17 16 16 17 16 15 15 13 12 11 11 11 11 9 7 8 7 6
15 15 15 14 13 12 11 10 9 8 7 8 10 11 12 13 14 15 16 16 16 16 16 16 16 16 13 15 18 16 15 14 13 12 10 9 10 10 9 9 8 7 7
15 15 15 14 13 12 11 10 10 8 7 8 9 10 11 13 14 14 15 16 16 16 16 15 16 16 16 18 19 17 14 13 13 12 11 8 8 10 9 9 9 7 5
15 15 15 15 14 12 11 10 9 8 7 7 9 10 11 13 13 14 15 16 14 15 15 15 15 14 15 19 20 18 13 11 11 11 12 11 10 10 11 9 7 6 4
15 14 14 14 13 12 11 10 9 7 7 8 9 10 11 13 13 14 14 14 13 13 13 13 14 14 14 19 20 18 11 9 10 9 10 11 11 14 15 12 10 8 6
13 13 14 13 12 11 10 9 8 8 7 8 8 10 11 12 14 14 14 12 12 12 11 11 12 13 13 19 21 20 11 11 9 8 8 11 12 17 16 12 11 10 7
15 14 13 12 12 11 10 9 9 8 8 7 8 9 10 12 13 13 12 12 12 12 11 11 10 11 13 18 22 20 12 12 11 9 8 9 15 17 16 12 9 11 10
15 14 13 12 11 10 9 10 9 9 8 7 7 8 9 10 10 12 12 12 13 13 12 11 10 9 11 14 18 20 16 14 12 10 9 10 17 17 15 11 13 15 12
14 13 13 13 12 10 9 10 10 8 7 7 7 7 8 9 11 13 13 12 12 11 11 10 10 9 9 11 17 19 18 17 11 10 14 16 19 17 12 14 16 12 8
14 13 13 12 12 11 10 10 9 8 7 7 6 7 8 9 10 10 11 11 12 12 12 11 11 10 10 10 11 12 13 15 13 12 16 18 17 12 13 12 9 6 6
13 13 12 12 13 12 11 10 8 7 7 6 6 6 7 8 8 8 8 10 10 12 13 12 12 13 12 13 17 15 13 12 13 14 11 9 9 8 7 7 6 6 6
13 13 12 13 12 11 11 9 8 6 6 6 6 6 7 7 7 7 6 6 8 12 13 13 13 11 13 20 21 20 20 21 22 15 11 10 9 9 9 8 7 6 5
Wind_Direction
253 245 240 236 230 224 219 212 207 202 192 183 181 180 181 181 179 180 180 179 178 178 179 175 175 177 179 180 179 174 171 169 166 165 168 180 195 206 205 210 212 210 212
259 246 239 233 227 222 219 212 208 203 197 189 185 183 180 183 181 179 182 182 181 181 182 180 179 181 182 182 181 176 173 169 178 180 173 182 195 208 214 215 221 222 216
267 252 242 233 225 221 218 213 207 203 199 190 185 179 173 176 181 183 184 186 184 184 184 185 183 183 184 185 184 182 182 177 184 192 191 190 194 179 194 211 217 219 221
272 261 250 240 227 224 221 214 207 202 198 192 189 183 182 185 190 185 184 184 186 187 187 187 187 186 187 187 187 189 189 181 184 191 212 225 182 189 180 196 210 216 225
280 267 253 247 234 227 225 215 207 204 199 195 195 189 190 190 188 184 183 184 187 190 189 188 189 189 190 190 189 189 191 191 192 191 188 192 198 223 214 206 204 214 220
298 278 265 257 245 232 231 220 206 207 202 197 199 196 192 187 186 187 185 186 187 190 192 190 191 192 192 193 192 191 195 196 198 198 196 195 197 202 210 224 218 221 213
324 307 291 273 259 243 232 223 209 208 203 200 202 200 195 190 190 191 190 187 188 191 193 191 193 193 195 194 192 193 197 200 201 203 205 208 215 206 211 225 229 234 229
340 329 316 297 273 253 237 229 216 212 204 203 204 201 198 194 195 196 193 192 192 192 191 192 195 195 194 193 193 195 199 202 204 208 209 211 213 208 209 215 222 234 236
343 335 325 316 296 271 250 239 227 218 209 206 205 202 200 197 196 197 196 194 194 191 191 192 195 196 194 194 193 198 199 202 206 208 209 212 212 211 213 216 219 228 243
340 332 327 320 309 294 269 248 239 225 213 209 207 204 201 199 197 197 197 196 194 190 190 192 194 195 195 194 195 199 201 202 205 206 208 211 210 209 209 213 217 225 238
338 332 327 319 308 310 298 270 249 232 218 213 210 208 203 200 199 201 200 197 195 191 191 192 193 194 196 195 196 199 198 202 204 203 207 210 208 206 206 207 210 216 220
335 332 330 327 321 315 307 289 267 237 223 217 213 211 206 200 198 201 201 199 195 193 192 190 192 194 195 195 197 199 199 201 202 202 203 208 204 206 205 204 208 212 213
336 337 337 335 331 323 310 292 279 251 229 221 216 212 207 203 201 201 200 197 195 193 191 190 193 194 195 195 198 200 199 201 202 200 201 203 201 205 204 204 205 207 207
336 338 338 336 333 325 315 300 284 270 242 227 219 214 210 207 203 202 199 196 192 191 190 191 193 194 194 194 195 196 198 198 199 199 199 200 200 203 199 199 201 196 195
334 335 334 332 332 328 319 311 295 283 258 233 224 217 213 209 204 200 197 193 191 190 188 190 192 192 193 194 192 191 192 193 193 194 197 199 196 194 190 189 190 184 184
328 328 328 328 328 326 318 312 302 290 272 243 230 221 214 207 203 199 194 190 189 187 186 189 190 191 192 184 182 185 187 188 188 186 186 183 179 174 168 164 163 167 176
321 321 321 320 319 319 315 307 300 290 271 253 236 223 213 206 201 197 193 190 188 185 186 187 189 191 189 178 177 177 183 183 184 181 178 173 172 168 164 150 139 136 132
317 316 316 317 316 315 312 307 299 287 269 253 240 225 211 206 199 194 192 189 187 186 187 187 187 188 185 173 173 168 175 176 178 179 177 173 171 169 161 152 144 135 124
310 310 310 312 313 312 311 306 297 286 267 251 241 228 212 204 198 195 192 188 185 185 184 184 183 184 179 169 166 162 170 166 168 170 171 170 166 157 150 147 140 129 112
310 313 313 312 313 312 310 303 294 285 271 258 246 233 214 202 197 195 191 186 182 178 175 177 179 178 176 167 164 162 166 161 159 155 159 162 159 154 152 154 151 146 143
310 313 314 312 310 310 307 299 291 283 279 269 251 236 215 202 195 191 187 180 174 169 169 167 169 171 169 164 164 164 167 163 158 157 158 160 153 151 152 152 153 150 144
310 313 312 309 308 305 300 293 288 287 285 269 250 233 214 197 188 183 179 175 168 165 163 160 159 162 163 162 166 164 162 156 156 157 155 152 149 147 146 144 139 137 134
308 310 308 306 305 301 295 290 290 289 279 265 247 226 207 191 184 182 175 172 168 167 165 163 161 157 154 153 154 157 153 147 147 146 143 141 141 139 137 136 137 137 134
307 308 306 304 302 301 296 290 290 286 268 253 239 213 197 186 182 180 176 174 172 169 167 165 162 157 154 153 153 153 147 139 134 131 131 130 129 126 129 133 133 130 133
304 303 301 300 300 300 298 295 290 281 260 242 225 203 188 178 174 172 175 176 176 173 169 169 165 164 166 164 157 154 154 151 143 135 132 134 136 137 136 132 130 127 127
301 300 298 297 298 298 295 294 291 275 252 230 208 189 177 171 163 153 140 123 145 146 152 159 163 165 157 151 149 147 145 143 142 138 143 147 149 151 150 146 139 134 135
Height
1401 1402 1404 1405 1407 1409 1412 1415 1419 1423 1428 1432 1436 1441 1447 1453 1458 1464 1470 1475 1480 1485 1489 1493 1497 1501 1505 1509 1513 1517 1520 1523 1526 1529 1531 1533 1534 1535 1536 1537 1537 1538 1538
1395 1396 1397 1399 1400 1403 1406 1410 1413 1417 1422 1426 1431 1437 1442 1448 1454 1460 1465 1471 1476 1481 1485 1489 1493 1498 1502 1507 1510 1513 1517 1520 1523 1526 1529 1532 1534 1533 1533 1534 1535 1536 1536
1391 1391 1392 1393 1395 1397 1400 1404 1407 1412 1416 1421 1427 1433 1438 1444 1449 1454 1460 1466 1471 1476 1481 1486 1490 1494 1499 1503 1506 1510 1513 1516 1520 1524 1527 1529 1530 1531 1532 1532 1533 1533 1534
1387 1387 1387 1388 1390 1392 1395 1399 1402 1406 1411 1416 1421 1425 1430 1435 1441 1448 1454 1461 1466 1472 1477 1482 1486 1490 1495 1499 1503 1507 1511 1514 1517 1520 1522 1525 1526 1528 1529 1530 1530 1531 1531
1384 1383 1383 1384 1385 1388 1390 1394 1397 1400 1405 1410 1415 1420 1425 1431 1438 1444 1450 1455 1461 1467 1472 1477 1481 1486 1490 1495 1499 1503 1507 1510 1514 1516 1519 1521 1523 1524 1526 1527 1528 1528 1528
1381 1380 1380 1381 1383 1384 1386 1389 1392 1396 1400 1405 1410 1414 1419 1426 1432 1438 1443 1449 1455 1461 1466 1471 1477 1481 1486 1490 1495 1499 1503 1507 1510 1513 1515 1518 1520 1521 1523 1525 1525 1526 1526
1379 1378 1377 1378 1379 1380 1381 1384 1388 1391 1395 1399 1404 1409 1414 1420 1426 1432 1438 1443 1449 1454 1460 1465 1471 1476 1481 1486 1491 1495 1499 1503 1506 1509 1512 1515 1517 1519 1521 1522 1522 1523 1523
1379 1377 1376 1376 1376 1377 1378 1380 1383 1386 1390 1394 1398 1404 1410 1415 1421 1427 1432 1438 1443 1448 1454 1460 1466 1471 1476 1481 1486 1490 1495 1498 1502 1505 1508 1510 1513 1515 1517 1519 1520 1520 1520
1379 1377 1376 1374 1373 1373 1374 1376 1378 1381 1385 1389 1394 1399 1405 1410 1415 1422 1428 1433 1438 1444 1450 1455 1461 1467 1471 1476 1481 1485 1489 1494 1497 1501 1504 1506 1509 1511 1513 1514 1516 1518 1517
1380 1377 1375 1372 1371 1371 1371 1372 1374 1377 1380 1385 1389 1394 1399 1404 1411 1417 1421 1427 1433 1438 1444 1450 1455 1461 1466 1471 1476 1480 1485 1489 1492 1496 1499 1501 1504 1506 1508 1510 1512 1513 1514
1380 1376 1373 1371 1369 1368 1368 1368 1369 1371 1375 1379 1384 1389 1394 1399 1405 1411 1416 1421 1427 1433 1438 1444 1450 1455 1460 1465 1470 1475 1479 1483 1487 1490 1494 1497 1500 1502 1504 1506 1507 1508 1509
1380 1376 1372 1369 1367 1365 1365 1365 1366 1368 1371 1374 1379 1384 1389 1394 1400 1405 1411 1416 1422 1427 1433 1439 1444 1450 1455 1460 1464 1469 1473 1477 1481 1485 1488 1492 1495 1497 1499 1501 1502 1503 1504
1378 1375 1371 1368 1365 1363 1363 1362 1362 1364 1367 1370 1374 1378 1383 1388 1394 1399 1405 1410 1416 1422 1427 1433 1438 1444 1449 1454 1459 1464 1468 1472 1476 1480 1483 1487 1490 1492 1494 1496 1497 1499 1500
1378 1374 1370 1367 1364 1362 1361 1360 1360 1361 1363 1366 1369 1373 1377 1382 1387 1393 1399 1404 1410 1416 1421 1427 1433 1438 1444 1449 1453 1458 1463 1467 1471 1475 1478 1482 1485 1487 1489 1491 1493 1494 1495
1376 1373 1369 1366 1362 1360 1358 1357 1357 1358 1359 1362 1365 1368 1373 1378 1383 1388 1394 1399 1405 1410 1416 1422 1427 1433 1438 1443 1447 1452 1457 1462 1466 1470 1473 1477 1480 1483 1485 1487 1488 1489 1490
1375 1372 1368 1364 1361 1358 1356 1354 1354 1354 1355 1358 1360 1364 1368 1373 1378 1383 1389 1394 1399 1405 1411 1416 1422 1427 1432 1437 1442 1447 1452 1456 1461 1465 1469 1472 1475 1478 1480 1483 1484 1486 1486
1374 1370 1367 1363 1359 1356 1354 1352 1351 1351 1352 1353 1356 1360 1363 1368 1373 1378 1384 1389 1394 1399 1405 1410 1416 1422 1427 1432 1437 1443 1447 1451 1456 1460 1464 1467 1470 1473 1476 1478 1480 1481 1482
1371 1367 1364 1360 1356 1353 1351 1349 1349 1349 1349 1350 1352 1355 1359 1363 1368 1373 1378 1383 1389 1394 1399 1405 1411 1416 1422 1427 1432 1438 1443 1447 1451 1455 1459 1463 1466 1468 1471 1474 1475 1477 1478
1369 1365 1361 1357 1353 1350 1348 1347 1345 1345 1345 1346 1348 1350 1354 1358 1363 1367 1372 1378 1384 1389 1394 1400 1405 1411 1417 1422 1427 1433 1438 1442 1447 1451 1455 1459 1461 1464 1467 1470 1471 1473 1474
1365 1361 1356 1353 1350 1347 1345 1343 1342 1341 1341 1341 1343 1347 1350 1354 1358 1362 1368 1374 1380 1385 1390 1395 1401 1406 1412 1417 1422 1428 1433 1437 1442 1446 1451 1455 1458 1461 1464 1466 1468 1469 1471
1360 1356 1352 1349 1346 1343 1341 1340 1338 1337 1337 1338 1340 1342 1346 1350 1354 1359 1364 1370 1375 1381 1386 1391 1396 1402 1407 1413 1418 1423 1428 1432 1437 1442 1446 1450 1454 1457 1460 1463 1465 1467 1469
1356 1352 1348 1345 1342 1340 1338 1335 1334 1334 1334 1334 1335 1338 1341 1345 1350 1355 1360 1365 1371 1376 1381 1387 1392 1398 1404 1409 1414 1419 1425 1430 1434 1438 1443 1447 1451 1454 1457 1460 1462 1464 1466
1352 1349 1345 1341 1338 1337 1334 1332 1330 1330 1330 1330 1331 1334 1337 1341 1345 1350 1355 1361 1366 1372 1377 1382 1387 1393 1399 1405 1410 1416 1421 1426 1431 1436 1440 1444 1448 1451 1454 1457 1459 1461 1463
1348 1345 1341 1337 1334 1332 1330 1328 1326 1326 1325 1326 1327 1330 1333 1337 1342 1347 1351 1356 1361 1366 1372 1377 1382 1388 1394 1400 1405 1411 1417 1423 1428 1433 1437 1441 1445 1448 1451 1454 1456 1459 1461
1343 1340 1337 1333 1329 1327 1325 1323 1322 1322 1322 1322 1324 1327 1330 1334 1338 1343 1348 1352 1357 1362 1367 1373 1378 1384 1389 1396 1402 1407 1413 1418 1423 1428 1433 1437 1441 1445 1448 1451 1454 1456 1458
1338 1335 1332 1329 1325 1323 1320 1319 1318 1318 1318 1318 1320 1323 1327 1330 1334 1339 1345 1351 1356 1361 1367 1372 1377 1383 1388 1394 1400 1406 1411 1416 1421 1426 1430 1434 1438 1441 1445 1448 1451 1453 1455